Location: Bagnara
(41.0500°N, 14.7833°E)
Time: 02:48:44
(UTC+00:00)

Cosmos 1656 - Visible Passes

Search period start: 17 October 2021 00:00
Search period end: 27 October 2021 00:00
Orbit: 800 x 848 km, 71.1° (Epoch: 16 October)

Date Brightness Start Highest point End Pass type
(mag) Time Alt. Az. Time Alt. Az. Time Alt. Az.
17 Oct 5.5 17:06:12 10° WSW 17:11:03 31° WNW 17:15:52 10° N visible
18 Oct 5.3 16:45:27 10° SW 16:50:29 35° WNW 16:55:30 10° N visible
22 Oct 6.4 17:11:47 10° WNW 17:13:05 11° NW 17:14:23 10° NNW visible
23 Oct 6.3 16:50:10 10° WNW 16:52:25 12° NW 16:54:41 10° NNW visible
